CZ-6A DEB, 54348

Orbit data source: Space-Track

CZ-6A DEB, 54348 is space debris in SSO originally from a launch on Fri, 11 Nov 2022 UTC launched from the Taiyaun Space Center, China (TSC). Debris objects in space refer to the collection of defunct objects orbiting the Earth. Examples of debris include non-operational satellites, rocket bodies, and fragments generated from explosions, collisions, or faulty payload assembly.

Loading next visibility...
Identifier
54348, 2022-151CT
Orbit
SSO
Country
Flag of CNCN / PRC
Related business
Manufacturer
SAST
Mission
Spacecraft
Bus & Motor
Unknown
Mass
Unknown
Launch date (UTC)
2022-11-11 (4 years ago)
Launch vehicle
Unknown
Launch site
Taiyaun Space Center, China (TSC)
Object type
Payload
Rocket body
Debris
Shape & HBR
Unknown shape, 0.1 m
Radar Cross Section
Medium (>0.1 m² and <1 m²)

Expand to show TLE details & history
Last TLE update: 1 day ago

TLE from 1 day ago
0 CZ-6A DEB
1 54348U 22151CT  26262.83093596  .00000557  00000-0  19449-3 0  9993
2 54348  98.6219 291.5498 0101851 118.3760 242.7740 14.36256065201176
Epoch: 2026-09-19T19:56Z
TLE epoch observation values (Epoch: 2026-09-19T19:56:32.866Z)
Latitude
-0.00006°
Longitude
-6.32096°
Altitude
807.737 km
Speed
7.432 km/s
True Right ascension
19h 26m 11s
True Declination
0° 00' 00"
Sunlit
Object was in daylight at epoch
Visualization orbit readout
Latitude
Unknown
Longitude
Unknown
Altitude
Unknown
Speed
Unknown
Apparent Right ascension
Unknown
Apparent Declination
Unknown
Sunlit
N/A
Visualization observer readout
Local Sidereal Time
12:54:52
Azimuth
Unknown
Elevation
Unknown
Doppler factor
Unknown
Orbital elements
Apogee altitude
840.812 km
Perigee altitude
695.243 km
Semi-major axis
7,146.165 km
Eccentricity
0.01019
Inclination
98.6219°
RAAN
291.5498°
Arg. of periapsis
118.376°
True anomaly
241.74225°
Mean anomaly
242.774°
Eccentric anomaly
242.25752°
Mean motion
3.59281 °/min
Orbital period
100.2 mins
BSTAR
0.00019449
Loading maneuver chart data...
Computing Atmospheric mass density...
Loading historical data...
Loading historical data...
Loading historical data...
Loading historical data...
Loading historical data...
Loading historical data...
Loading historical data...

Documentation

Showing up to 5 results
|